Weather History for KAFK - January, 2013

Change the Weather History Date:

Thursday, January 17, 2013

  Actual Average (KSDA) Record (KSDA)
Temperature  
Mean Temperature 34 °F -  
Max Temperature 43 °F 32 °F 65 °F (1990)
Min Temperature 24 °F 12 °F -14 °F (1997)
Degree Days  
Heating Degree Days 32    
Moisture  
Dew Point 28 °F    
Average Humidity 90    
Maximum Humidity 100    
Minimum Humidity 61    
Precipitation  
Precipitation 0.00 in - - ()
Sea Level Pressure  
Sea Level Pressure 30.37 in    
Wind  
Wind Speed 2 mph (NNW)    
Max Wind Speed 10 mph    
Max Gust Speed -    
Visibility 7 miles    
Events Fog    
Averages and records for this station are not official NWS values.
T = Trace of Precipitation, MM = Missing Value Source: NWS Daily Summary

Daily Weather History Graph

Daily Weather History Graph

Search for Another Location

Airport or City:

Trip Planner

Search our weather history database for the weather conditions in past years. The results will help you decide how hot, cold, wet, or windy it might be!

Date:

Astronomy

Jan. 17, 2013 Rise Set
Actual Time 7:44 AM CST 5:23 PM CST
Civil Twilight 7:14 AM CST 5:53 PM CST
Nautical Twilight 6:40 AM CST 6:27 PM CST
Astronomical Twilight 6:07 AM CST 6:59 PM CST
Moon 10:49 AM CST (1/17) No Moon Set
Length of Visible Light 10h 39m
Length of Day
9h 39m
Waxing Crescent, 38% of the Moon is Illuminated
Jan 17
Waxing Crescent
Jan 18
First Quarter
Jan 26
Full
Feb 3
Last Quarter
Feb 10
New

Hourly Weather History & Observations

Time (CST) Temp. Windchill Dew Point Humidity Pressure Visibility Wind Dir Wind Speed Gust Speed Precip Events Conditions
12:15 AM 32.4 °F 29.1 °F 28.6 °F 86% 30.23 in 10.0 mi NNW 3.5 mph - N/A   Clear
12:35 AM 32.2 °F 24.4 °F 28.6 °F 87% 30.24 in 10.0 mi NNW 9.2 mph - N/A   Clear
12:55 AM 32.5 °F 24.8 °F 29.1 °F 87% 30.26 in 10.0 mi NNW 9.2 mph - N/A   Clear
1:15 AM 32.0 °F - 28.8 °F 88% 30.27 in 10.0 mi Calm Calm - N/A   Clear
1:35 AM 31.5 °F 24.9 °F 28.6 °F 89% 30.29 in 10.0 mi North 6.9 mph - N/A   Clear
1:55 AM 31.8 °F 23.3 °F 28.9 °F 89% 30.29 in 10.0 mi North 10.4 mph - N/A   Scattered Clouds
2:35 AM 29.5 °F - 27.5 °F 92% 30.31 in 10.0 mi Calm Calm - N/A   Scattered Clouds
2:55 AM 28.6 °F - 27.1 °F 94% 30.31 in 10.0 mi Calm Calm - N/A   Clear
3:35 AM 27.9 °F - 27.1 °F 97% 30.33 in 7.0 mi Calm Calm - N/A   Scattered Clouds
3:55 AM 25.9 °F - 25.2 °F 97% 30.33 in 7.0 mi Calm Calm - N/A   Clear
4:15 AM 25.3 °F 18.5 °F 24.8 °F 98% 30.34 in 7.0 mi NW 5.8 mph - N/A   Clear
4:35 AM 25.5 °F - 24.8 °F 97% 30.35 in 7.0 mi Calm Calm - N/A   Clear
4:55 AM 25.3 °F - 24.6 °F 97% 30.35 in 7.0 mi Calm Calm - N/A   Clear
5:15 AM 24.8 °F - 23.9 °F 96% 30.35 in 7.0 mi Calm Calm - N/A   Clear
5:35 AM 25.0 °F - 24.4 °F 98% 30.37 in 10.0 mi Calm Calm - N/A   Scattered Clouds
6:15 AM 25.5 °F - 24.8 °F 97% 30.37 in 5.0 mi Calm Calm - N/A   Scattered Clouds
6:35 AM 25.0 °F - 24.1 °F 96% 30.37 in 4.0 mi Calm Calm - N/A   Mostly Cloudy
6:55 AM 24.3 °F - 23.7 °F 98% 30.38 in 1.5 mi Calm Calm - N/A   Overcast
7:15 AM 25.5 °F - 25.3 °F 99% 30.39 in 0.5 mi Calm Calm - N/A Fog Light Freezing Fog
7:35 AM 26.1 °F - 25.7 °F 99% 30.40 in 0.2 mi Calm Calm - N/A Fog Light Freezing Fog
7:55 AM 26.2 °F - 26.2 °F 100% 30.40 in 0.2 mi Calm Calm - N/A Fog Light Freezing Fog
8:15 AM 26.1 °F - 26.1 °F 100% 30.40 in 0.2 mi Calm Calm - N/A Fog Light Freezing Fog
8:35 AM 26.6 °F - 26.6 °F 100% 30.43 in 0.2 mi Calm Calm - N/A Fog Light Freezing Fog
8:55 AM 27.0 °F - 27.0 °F 100% 30.43 in 0.2 mi Calm Calm - N/A Fog Light Freezing Fog
9:15 AM 27.3 °F - 27.3 °F 100% 30.44 in 0.2 mi Calm Calm - N/A Fog Light Freezing Fog
9:35 AM 27.1 °F - 27.1 °F 100% 30.45 in 0.5 mi Calm Calm - N/A Fog Light Freezing Fog
9:55 AM 28.9 °F - 28.9 °F 100% 30.45 in 3.0 mi Calm Calm - N/A   Mostly Cloudy
10:15 AM 29.7 °F - 29.7 °F 100% 30.46 in 4.0 mi Calm Calm - N/A   Clear
10:35 AM 29.3 °F - 29.3 °F 100% 30.47 in 4.0 mi Calm Calm - N/A   Mostly Cloudy
10:55 AM 31.6 °F - 31.3 °F 99% 30.47 in 5.0 mi Calm Calm - N/A   Mostly Cloudy
11:15 AM 31.6 °F - 29.8 °F 93% 30.47 in 4.0 mi Calm Calm - N/A   Mostly Cloudy
11:35 AM 31.1 °F - 30.2 °F 96% 30.46 in 2.5 mi Calm Calm - N/A   Overcast
11:55 AM 30.9 °F - 30.6 °F 99% 30.44 in 2.0 mi Calm Calm - N/A   Overcast
12:15 PM 31.1 °F - 30.2 °F 96% 30.43 in 3.0 mi Calm Calm - N/A   Overcast
12:35 PM 32.4 °F - 30.9 °F 94% 30.43 in 4.0 mi Calm Calm - N/A   Mostly Cloudy
12:55 PM 34.5 °F - 29.5 °F 82% 30.41 in 7.0 mi Calm Calm - N/A   Scattered Clouds
1:15 PM 35.8 °F - 29.8 °F 79% 30.41 in 7.0 mi Calm Calm - N/A   Clear
1:35 PM 37.9 °F - 30.0 °F 73% 30.41 in 10.0 mi Calm Calm - N/A   Clear
1:55 PM 38.7 °F - 30.2 °F 72% 30.40 in 10.0 mi Calm Calm - N/A   Clear
2:15 PM 39.2 °F - 30.6 °F 71% 30.40 in 10.0 mi Calm Calm - N/A   Clear
2:35 PM 40.8 °F - 30.6 °F 67% 30.39 in 10.0 mi Calm Calm - N/A   Clear
2:55 PM 42.1 °F - 30.6 °F 64% 30.38 in 10.0 mi Calm Calm - N/A   Clear
3:15 PM 42.8 °F - 30.7 °F 62% 30.38 in 10.0 mi Calm Calm - N/A   Clear
3:35 PM 43.0 °F - 30.7 °F 62% 30.38 in 10.0 mi Calm Calm - N/A   Clear
3:55 PM 43.5 °F - 30.7 °F 61% 30.38 in 10.0 mi Calm Calm - N/A   Clear
4:55 PM 39.4 °F - 30.2 °F 70% 30.38 in 10.0 mi Calm Calm - N/A   Clear
5:35 PM 34.9 °F - 29.3 °F 80% 30.39 in 10.0 mi Calm Calm - N/A   Clear
7:55 PM 34.2 °F - 31.1 °F 89% 30.38 in 10.0 mi Calm Calm - N/A   Clear
8:15 PM 33.8 °F - 29.8 °F 85% 30.37 in 10.0 mi Calm Calm - N/A   Clear
8:55 PM 30.2 °F - 29.5 °F 97% 30.35 in 7.0 mi Calm Calm - N/A   Clear
9:15 PM 29.3 °F - 28.8 °F 98% 30.35 in 7.0 mi Calm Calm - N/A   Clear
9:35 PM 30.2 °F - 29.8 °F 99% 30.34 in 7.0 mi Calm Calm - N/A   Clear
9:55 PM 29.8 °F - 29.1 °F 97% 30.33 in 7.0 mi Calm Calm - N/A   Clear
11:15 PM 29.3 °F 21.5 °F 27.9 °F 94% 30.31 in 10.0 mi South 8.1 mph - N/A   Clear
11:35 PM 29.5 °F - 27.7 °F 93% 30.31 in 10.0 mi Calm Calm - N/A   Clear
11:55 PM 27.5 °F - 26.4 °F 96% 30.30 in 10.0 mi Calm Calm - N/A   Clear